User: anonymous   Login
Location: Sunny Point
(33.0946°N, 85.0574°W)
Time: 14:51:29
(UTC+00:00)
Language:

JUGNU - Orbit

View from above orbital plane
View from above orbital plane
View from above satellite
View from above satellite

Ground track
Ground track

The orbit data is extracted from the following two-line orbital elements,

1 37839U 11058B   24194.46892152  .00000540  00000-0  14345-3 0  9991
2 37839  19.9606 268.4484 0018541 215.4959 249.3002 14.13238967659300
Epoch (UTC): 12 July 2024 11:15:14
Eccentricity: 0.0018541
inclination: 19.9606°
perigee height: 835 km
apogee height: 862 km
right ascension of ascending node: 268.4484°
argument of perigee: 215.4959°
revolutions per day: 14.13238967
mean anomaly at epoch: 249.3002°
orbit number at epoch: 65930

The dashed part of the orbit path shows where the satellite is in the earth's shadow,  

DLR